Precipitable_Water
0.25 0.27 0.36 0.41 0.23 0.15 0.13 0.15 0.21 0.21 0.23 0.32 0.27 0.22 0.25 0.27 0.26 0.30 0.68 0.60 0.61 0.71 0.92 1.16 1.34 1.50 1.66 1.71 1.73 1.82 1.73 1.68 1.66 1.62 1.61 1.55 1.40 1.45 1.53 1.50 1.48 1.55 1.64 1.65 1.66 1.54 1.52 1.40 1.22
0.23 0.32 0.37 0.32 0.13 0.11 0.12 0.14 0.18 0.21 0.27 0.23 0.19 0.20 0.21 0.23 0.39 0.41 0.43 0.48 0.49 0.66 0.83 0.99 1.25 1.46 1.56 1.67 1.69 1.75 1.77 1.69 1.68 1.67 1.65 1.67 1.57 1.55 1.59 1.59 1.59 1.65 1.70 1.75 1.66 1.60 1.38 1.17 1.10
0.25 0.33 0.27 0.19 0.13 0.07 0.08 0.12 0.14 0.17 0.15 0.15 0.14 0.16 0.18 0.26 0.38 0.35 0.34 0.37 0.39 0.48 0.68 0.86 1.07 1.33 1.48 1.59 1.74 1.73 1.73 1.64 1.67 1.68 1.71 1.67 1.72 1.65 1.64 1.64 1.63 1.67 1.70 1.70 1.70 1.60 1.37 1.16 1.07
0.22 0.23 0.15 0.10 0.10 0.11 0.11 0.11 0.16 0.13 0.13 0.14 0.13 0.11 0.21 0.24 0.26 0.29 0.34 0.34 0.33 0.35 0.55 0.68 0.84 1.10 1.35 1.49 1.63 1.76 1.76 1.67 1.63 1.66 1.74 1.71 1.73 1.74 1.72 1.68 1.65 1.64 1.63 1.68 1.63 1.48 1.40 1.15 1.06
0.21 0.18 0.12 0.10 0.10 0.11 0.12 0.14 0.13 0.10 0.11 0.12 0.13 0.10 0.12 0.23 0.25 0.27 0.26 0.27 0.27 0.28 0.34 0.56 0.68 0.82 1.10 1.33 1.49 1.67 1.72 1.71 1.68 1.65 1.66 1.76 1.71 1.77 1.84 1.84 1.82 1.70 1.66 1.69 1.64 1.53 1.37 1.15 1.04
0.13 0.14 0.09 0.09 0.09 0.11 0.13 0.14 0.13 0.11 0.12 0.13 0.13 0.13 0.13 0.24 0.25 0.25 0.26 0.25 0.27 0.27 0.30 0.35 0.56 0.68 0.81 1.06 1.30 1.44 1.64 1.68 1.61 1.63 1.64 1.66 1.71 1.72 1.75 1.80 1.86 1.82 1.73 1.74 1.70 1.64 1.41 1.14 1.03
0.14 0.11 0.09 0.08 0.07 0.09 0.10 0.14 0.11 0.12 0.12 0.13 0.17 0.12 0.16 0.25 0.27 0.28 0.27 0.28 0.29 0.30 0.31 0.34 0.38 0.57 0.68 0.81 1.05 1.22 1.43 1.60 1.71 1.62 1.62 1.66 1.69 1.72 1.71 1.74 1.81 1.85 1.84 1.81 1.77 1.68 1.53 1.17 1.02
0.15 0.12 0.09 0.09 0.08 0.09 0.12 0.13 0.15 0.13 0.12 0.18 0.18 0.13 0.15 0.23 0.28 0.28 0.29 0.28 0.29 0.31 0.32 0.31 0.33 0.40 0.56 0.67 0.83 0.99 1.20 1.43 1.61 1.72 1.69 1.65 1.64 1.68 1.69 1.73 1.76 1.79 1.84 1.86 1.82 1.74 1.59 1.23 1.05
0.17 0.10 0.09 0.10 0.09 0.10 0.13 0.12 0.17 0.19 0.16 0.18 0.19 0.18 0.22 0.26 0.27 0.26 0.25 0.27 0.29 0.31 0.33 0.34 0.33 0.34 0.41 0.53 0.64 0.84 0.98 1.14 1.41 1.64 1.72 1.68 1.67 1.65 1.67 1.71 1.75 1.80 1.84 1.84 1.85 1.79 1.58 1.27 1.11
0.15 0.11 0.11 0.12 0.12 0.11 0.14 0.15 0.17 0.17 0.17 0.18 0.19 0.24 0.28 0.28 0.27 0.25 0.25 0.25 0.27 0.29 0.33 0.35 0.35 0.35 0.36 0.43 0.54 0.67 0.81 0.93 1.14 1.31 1.60 1.67 1.68 1.66 1.67 1.70 1.74 1.81 1.87 1.88 1.85 1.80 1.59 1.29 1.16
0.15 0.10 0.12 0.13 0.15 0.17 0.16 0.17 0.20 0.19 0.17 0.20 0.22 0.24 0.25 0.25 0.26 0.26 0.27 0.28 0.28 0.31 0.32 0.35 0.38 0.40 0.39 0.39 0.44 0.56 0.68 0.77 0.87 1.06 1.24 1.50 1.62 1.67 1.63 1.69 1.74 1.81 1.87 1.88 1.82 1.74 1.58 1.28 1.19
0.12 0.13 0.14 0.16 0.18 0.18 0.18 0.21 0.20 0.21 0.21 0.26 0.25 0.25 0.25 0.24 0.25 0.26 0.26 0.28 0.29 0.30 0.32 0.36 0.38 0.42 0.43 0.42 0.41 0.45 0.59 0.67 0.74 0.83 0.92 1.13 1.44 1.56 1.64 1.65 1.71 1.75 1.84 1.81 1.87 1.70 1.55 1.34 1.21
0.13 0.15 0.16 0.18 0.20 0.22 0.23 0.21 0.21 0.22 0.25 0.27 0.26 0.25 0.25 0.24 0.23 0.25 0.26 0.27 0.30 0.30 0.31 0.33 0.40 0.40 0.44 0.46 0.42 0.42 0.48 0.61 0.67 0.75 0.77 0.79 1.00 1.30 1.48 1.65 1.62 1.70 1.71 1.73 1.69 1.63 1.58 1.37 1.24
0.17 0.17 0.18 0.20 0.22 0.23 0.21 0.21 0.21 0.21 0.25 0.24 0.24 0.24 0.24 0.23 0.23 0.23 0.25 0.26 0.27 0.30 0.32 0.35 0.37 0.42 0.44 0.48 0.46 0.42 0.43 0.54 0.66 0.67 0.78 0.76 0.74 0.88 1.16 1.32 1.47 1.42 1.55 1.42 1.45 1.40 1.47 1.52 1.46
0.18 0.15 0.18 0.19 0.23 0.22 0.23 0.17 0.17 0.22 0.24 0.23 0.24 0.23 0.23 0.22 0.22 0.22 0.24 0.25 0.28 0.29 0.32 0.35 0.38 0.42 0.45 0.46 0.48 0.45 0.45 0.47 0.53 0.67 0.74 0.76 0.79 0.74 0.78 1.08 1.28 1.32 1.44 1.37 1.37 1.38 1.41 1.50 1.54
0.15 0.16 0.13 0.21 0.22 0.23 0.22 0.14 0.19 0.24 0.23 0.22 0.23 0.23 0.22 0.22 0.22 0.25 0.27 0.28 0.30 0.31 0.32 0.35 0.39 0.43 0.47 0.51 0.51 0.54 0.51 0.50 0.50 0.56 0.64 0.75 0.79 0.79 0.72 0.76 1.01 1.27 1.29 1.32 1.22 1.28 1.28 1.30 1.31
0.17 0.10 0.12 0.17 0.23 0.23 0.21 0.16 0.22 0.25 0.24 0.23 0.23 0.22 0.22 0.21 0.24 0.27 0.29 0.31 0.32 0.34 0.34 0.34 0.38 0.41 0.48 0.50 0.51 0.54 0.55 0.59 0.55 0.54 0.56 0.72 0.85 0.83 0.82 0.71 0.80 1.08 1.19 1.21 1.14 1.15 1.23 1.22 1.24
0.09 0.09 0.12 0.15 0.22 0.23 0.20 0.19 0.22 0.24 0.24 0.23 0.23 0.22 0.20 0.21 0.23 0.27 0.31 0.33 0.35 0.36 0.37 0.38 0.39 0.42 0.49 0.50 0.51 0.52 0.54 0.59 0.54 0.58 0.56 0.52 0.81 0.90 0.72 0.66 0.70 0.90 0.96 0.98 1.04 1.07 1.18 1.27 1.28
0.13 0.12 0.12 0.18 0.22 0.20 0.19 0.19 0.21 0.23 0.23 0.24 0.22 0.21 0.20 0.21 0.25 0.28 0.32 0.35 0.37 0.37 0.38 0.40 0.40 0.43 0.48 0.49 0.48 0.48 0.51 0.51 0.54 0.51 0.57 0.51 0.58 0.75 0.86 0.80 0.60 0.78 0.90 0.99 0.99 1.08 1.10 1.25 1.25
0.13 0.11 0.13 0.17 0.22 0.22 0.19 0.17 0.21 0.23 0.24 0.25 0.23 0.21 0.21 0.22 0.24 0.28 0.33 0.35 0.37 0.38 0.40 0.41 0.43 0.45 0.51 0.53 0.52 0.51 0.51 0.56 0.63 0.59 0.53 0.56 0.58 0.70 0.72 0.83 0.63 0.60 0.85 0.95 1.04 1.03 1.06 1.12 1.21
0.13 0.12 0.12 0.13 0.19 0.22 0.19 0.16 0.21 0.23 0.26 0.26 0.25 0.23 0.23 0.22 0.24 0.28 0.32 0.35 0.37 0.38 0.41 0.43 0.45 0.47 0.53 0.56 0.55 0.53 0.52 0.53 0.52 0.56 0.54 0.61 0.68 0.60 0.60 0.63 0.76 0.62 0.68 0.76 0.98 1.01 1.00 0.96 1.07
0.10 0.15 0.15 0.15 0.17 0.14 0.21 0.12 0.20 0.22 0.24 0.26 0.26 0.25 0.23 0.24 0.26 0.28 0.32 0.34 0.36 0.38 0.43 0.45 0.47 0.48 0.52 0.56 0.54 0.50 0.47 0.46 0.56 0.58 0.60 0.62 0.60 0.50 0.54 0.55 0.59 0.61 0.71 0.75 0.81 0.89 0.99 1.18 1.07
0.12 0.16 0.15 0.15 0.17 0.17 0.17 0.15 0.19 0.23 0.22 0.24 0.26 0.26 0.23 0.25 0.26 0.28 0.32 0.35 0.38 0.40 0.42 0.44 0.46 0.48 0.51 0.53 0.55 0.51 0.49 0.50 0.51 0.52 0.49 0.50 0.47 0.46 0.44 0.44 0.50 0.55 0.61 0.80 0.83 1.02 1.03 0.99 1.09
0.17 0.15 0.16 0.18 0.18 0.12 0.18 0.16 0.17 0.21 0.24 0.27 0.28 0.27 0.23 0.25 0.26 0.29 0.32 0.36 0.37 0.40 0.41 0.42 0.44 0.46 0.49 0.52 0.54 0.52 0.50 0.48 0.46 0.46 0.42 0.42 0.41 0.40 0.39 0.42 0.46 0.53 0.54 0.66 0.81 0.97 1.08 1.04 1.02
0.17 0.14 0.10 0.12 0.14 0.14 0.20 0.16 0.18 0.26 0.28 0.30 0.28 0.27 0.23 0.25 0.26 0.28 0.31 0.33 0.35 0.37 0.40 0.42 0.43 0.43 0.47 0.50 0.53 0.52 0.50 0.49 0.46 0.44 0.41 0.39 0.39 0.38 0.37 0.41 0.45 0.49 0.49 0.58 0.79 0.81 0.91 1.01 0.98
0.14 0.14 0.09 0.07 0.11 0.13 0.19 0.14 0.20 0.27 0.31 0.32 0.31 0.25 0.22 0.24 0.26 0.28 0.30 0.32 0.32 0.35 0.37 0.39 0.41 0.42 0.46 0.49 0.51 0.52 0.50 0.49 0.48 0.45 0.43 0.42 0.39 0.37 0.38 0.43 0.50 0.50 0.52 0.54 0.81 0.85 0.88 1.01 1.13
0.15 0.13 0.16 0.12 0.15 0.13 0.15 0.20 0.23 0.28 0.29 0.30 0.28 0.22 0.21 0.23 0.25 0.27 0.29 0.31 0.32 0.34 0.35 0.38 0.40 0.43 0.46 0.48 0.49 0.49 0.49 0.48 0.46 0.44 0.43 0.39 0.38 0.38 0.42 0.47 0.50 0.55 0.52 0.64 0.81 0.85 0.85 0.95 0.92
0.17 0.19 0.12 0.13 0.10 0.11 0.15 0.18 0.19 0.24 0.23 0.26 0.24 0.22 0.22 0.23 0.24 0.26 0.28 0.29 0.31 0.33 0.35 0.37 0.39 0.42 0.44 0.46 0.47 0.47 0.46 0.47 0.46 0.47 0.42 0.39 0.39 0.40 0.46 0.50 0.55 0.53 0.64 0.64 0.65 0.72 0.80 0.93 0.88
0.16 0.14 0.15 0.13 0.15 0.14 0.13 0.16 0.26 0.24 0.23 0.23 0.23 0.22 0.21 0.22 0.23 0.24 0.27 0.28 0.30 0.33 0.34 0.35 0.37 0.38 0.40 0.42 0.43 0.44 0.43 0.43 0.44 0.43 0.42 0.41 0.43 0.44 0.47 0.50 0.53 0.56 0.56 0.67 0.67 0.67 0.83 0.83 0.79
0.19 0.17 0.17 0.09 0.11 0.18 0.19 0.16 0.29 0.25 0.24 0.24 0.23 0.23 0.22 0.22 0.22 0.23 0.25 0.27 0.29 0.30 0.32 0.33 0.35 0.36 0.37 0.39 0.40 0.41 0.42 0.43 0.42 0.42 0.45 0.45 0.45 0.49 0.49 0.49 0.49 0.54 0.54 0.57 0.60 0.68 0.82 0.78 0.81
Wind_Speed
9 8 8 8 10 10 13 11 10 13 13 12 14 15 15 16 16 14 13 14 15 16 17 17 17 18 19 21 23 23 23 22 22 21 20 20 20 20 20 22 22 22 21 20 18 17 16 15 14
10 9 9 10 12 14 13 12 13 13 14 17 19 19 20 20 18 20 20 20 19 18 17 18 18 19 20 20 24 24 24 25 24 23 23 22 22 22 22 22 23 23 22 21 20 18 17 16 16
10 10 11 11 12 14 13 11 14 14 16 17 18 18 20 19 19 22 23 24 23 22 21 20 20 20 21 21 22 25 26 26 27 26 25 25 24 24 24 24 23 24 23 23 21 20 18 17 17
9 10 11 13 16 15 14 14 15 18 19 17 18 22 20 21 22 23 25 26 26 26 25 24 23 22 23 23 24 23 27 27 28 28 28 28 27 26 26 26 25 25 24 24 23 21 20 19 18
9 11 12 13 15 15 16 17 19 21 22 22 22 23 25 23 24 26 28 28 28 28 29 28 27 26 25 26 26 26 26 28 29 29 30 30 29 28 28 27 27 26 26 24 23 23 21 20 19
9 11 12 14 13 14 17 18 21 22 23 24 26 27 28 26 28 30 31 31 31 31 30 31 31 29 29 28 28 28 29 29 29 30 31 31 31 31 30 30 29 28 27 26 25 24 22 22 21
12 11 13 16 17 18 16 19 20 22 24 24 25 27 27 28 30 32 33 34 34 34 33 33 33 33 32 32 31 31 31 31 31 32 32 32 32 32 32 32 31 30 29 28 27 25 23 22 22
11 12 14 14 17 18 17 20 21 23 25 25 26 26 28 32 35 35 36 36 36 36 36 36 36 36 36 36 35 34 33 33 32 33 34 34 33 33 33 33 33 33 32 31 29 28 26 24 23
11 14 16 17 18 17 18 21 23 25 28 31 32 34 36 37 39 41 40 40 39 39 39 39 39 39 39 39 39 38 36 35 34 34 34 35 35 34 34 34 34 34 34 33 31 29 28 26 25
13 15 16 17 19 21 23 25 28 29 32 35 36 36 37 41 42 43 43 44 44 44 43 42 42 42 41 41 41 41 40 38 37 36 35 35 36 35 35 34 35 34 34 34 32 30 30 28 26
13 16 17 18 20 22 25 29 30 33 35 35 34 36 39 42 43 44 45 45 46 47 47 46 45 45 44 43 43 43 42 42 39 38 36 36 37 36 37 35 34 34 35 34 33 31 31 29 27
15 17 19 20 21 23 28 30 32 33 34 32 34 37 39 40 41 43 46 47 48 49 49 48 48 47 47 47 45 45 45 43 42 40 39 36 36 37 36 37 36 35 34 34 30 31 32 30 29
16 19 20 22 24 27 29 30 32 32 32 31 34 36 38 41 44 46 48 48 48 48 49 50 50 50 49 49 48 47 46 46 45 43 41 39 36 36 36 34 35 33 36 33 23 28 29 31 31
18 21 23 22 23 26 28 30 30 28 26 30 33 35 39 42 45 47 47 47 48 49 48 48 50 50 51 51 51 50 48 47 47 46 45 42 39 37 36 35 31 36 29 33 32 31 30 31 30
19 21 21 19 21 24 27 28 24 24 26 31 34 37 39 40 42 39 39 41 44 46 47 48 48 49 50 51 52 51 50 49 49 47 47 46 42 39 38 37 36 35 33 33 30 29 23 27 29
18 18 22 19 21 22 24 25 26 24 29 33 35 36 37 37 35 34 34 35 36 39 43 45 47 48 49 50 51 52 52 50 49 48 48 47 45 43 41 39 38 38 38 37 35 33 31 27 30
17 22 24 23 20 22 21 28 26 28 31 33 33 34 34 34 33 32 33 33 34 35 37 40 43 46 47 48 49 51 52 52 50 48 47 48 48 47 42 40 40 40 38 39 39 37 34 31 29
22 23 22 26 22 26 29 34 33 32 30 31 32 32 32 32 32 33 32 32 32 31 32 34 37 41 45 45 46 48 50 51 50 48 47 45 48 48 46 43 40 41 42 40 40 39 39 35 31
22 24 28 28 23 26 26 32 33 31 30 28 29 30 30 31 32 31 31 30 29 27 27 28 31 35 38 41 42 45 45 47 48 46 47 45 43 43 46 44 43 42 41 41 41 40 39 36 33
23 27 29 24 19 29 29 31 30 28 27 27 27 28 28 29 30 29 28 27 26 25 25 25 27 28 32 36 39 41 45 45 44 44 43 43 43 42 42 42 42 43 42 42 41 41 39 41 40
24 25 27 28 30 24 25 26 20 23 22 23 24 26 27 28 27 27 26 24 23 22 22 21 21 24 27 31 35 38 41 43 43 42 42 40 41 40 41 41 38 39 41 42 42 42 42 39 41
22 21 27 28 24 19 20 22 22 20 22 23 24 27 26 26 25 24 23 22 21 20 19 16 15 18 23 27 32 35 38 40 40 40 39 38 38 39 41 40 40 39 39 41 41 42 42 40 39
22 29 28 23 18 21 14 19 20 21 25 25 25 28 25 24 23 22 21 20 19 18 16 13 13 15 18 23 28 32 36 38 39 39 38 37 36 36 38 40 40 39 39 38 40 40 41 42 41
25 26 22 16 15 16 13 18 21 21 25 25 28 27 24 22 21 19 19 18 17 16 14 13 13 13 15 20 24 28 32 34 35 35 34 34 33 33 34 36 38 37 36 35 36 38 39 40 40
22 22 18 15 15 16 14 19 22 22 26 28 29 25 20 18 18 17 18 17 16 14 12 11 10 11 11 16 20 25 28 30 31 31 30 29 28 28 29 31 32 33 32 32 33 33 36 37 38
18 18 15 18 19 22 16 17 18 22 27 30 25 18 15 15 16 16 16 16 14 12 11 9 8 7 8 13 17 22 24 26 27 27 27 26 25 25 26 27 29 29 28 28 28 29 30 32 33
16 16 17 18 16 17 14 18 18 21 27 30 20 16 13 14 15 15 15 14 13 11 9 7 5 2 5 10 15 19 21 22 24 24 24 23 23 23 23 25 26 26 26 26 26 26 26 27 29
16 13 16 15 17 18 17 19 19 22 28 24 20 15 12 13 13 14 14 13 12 10 8 6 4 3 6 9 14 16 18 19 20 21 20 21 21 22 22 23 23 23 23 23 24 23 23 22 22
13 15 15 16 13 14 17 18 17 20 23 22 18 14 11 12 12 13 14 13 12 10 8 7 7 7 8 10 12 14 15 16 17 17 17 18 19 20 21 21 21 20 20 20 20 20 21 21 21
15 16 15 14 10 12 13 15 15 18 20 19 16 13 11 11 12 13 13 13 11 11 9 9 9 9 10 11 12 13 14 14 14 14 15 16 17 18 18 19 19 19 18 17 18 19 17 19 19
Wind_Direction
288 274 265 260 262 258 266 263 268 263 265 268 269 266 271 271 263 262 264 273 276 272 268 263 259 251 248 243 236 234 233 230 228 225 221 217 214 211 209 208 208 208 208 209 210 212 215 218 218
283 272 267 268 267 261 272 260 264 275 278 277 272 268 265 266 260 262 265 275 274 272 270 265 260 254 250 249 238 235 234 231 228 226 224 221 218 216 214 212 212 213 212 213 214 216 222 223 224
277 269 272 271 270 266 275 285 282 277 279 278 275 274 271 267 267 266 271 272 270 269 268 265 262 256 251 247 243 237 234 231 229 228 226 224 222 220 218 217 216 216 217 217 218 222 225 225 227
274 271 274 271 266 272 276 282 282 282 280 278 279 276 268 270 268 272 275 273 271 267 265 264 262 258 253 249 245 241 237 234 232 230 228 226 225 223 222 220 220 220 220 220 223 226 225 227 229
272 276 271 273 275 275 282 283 283 282 282 278 280 276 273 270 272 276 276 274 273 269 264 262 261 258 255 250 247 243 240 237 234 232 230 229 227 226 225 224 223 222 222 223 225 225 228 229 229
274 281 275 278 287 280 283 287 286 282 283 284 281 282 276 270 278 279 277 274 270 268 265 261 258 257 255 252 248 245 242 239 236 234 232 231 230 229 228 227 226 225 225 225 226 228 229 231 231
280 280 288 290 290 288 287 291 287 289 287 286 285 281 277 270 285 280 277 274 270 267 264 261 259 255 253 251 248 246 243 241 238 236 233 232 232 232 230 230 229 228 228 227 227 229 230 231 231
288 290 290 288 298 294 294 293 292 291 289 288 286 281 281 284 285 282 279 275 271 267 264 261 259 256 253 250 248 245 243 241 239 237 234 234 234 233 234 233 232 231 230 230 229 230 231 232 231
292 290 291 293 296 298 296 296 296 292 289 288 286 283 284 286 284 282 279 275 272 268 265 262 258 255 253 250 246 244 243 240 239 237 235 235 234 234 234 234 234 233 231 231 231 231 232 231 231
294 296 304 304 300 298 299 297 298 295 293 291 289 286 286 288 286 283 280 276 273 270 266 262 259 255 253 249 247 244 242 241 239 238 237 235 235 235 235 236 235 235 232 232 233 232 231 231 231
298 301 307 303 300 301 300 299 298 295 294 294 294 292 291 290 288 284 281 277 273 270 266 263 259 256 252 249 246 243 241 239 238 237 237 237 236 235 235 236 235 235 233 236 233 234 231 232 232
299 301 302 304 303 303 302 304 300 296 296 300 297 297 295 293 290 287 283 279 274 270 266 262 258 255 252 248 245 243 240 238 237 236 235 236 235 234 235 235 236 236 236 238 233 231 233 234 232
298 306 304 303 302 303 304 302 299 300 299 300 301 300 298 296 293 290 285 280 274 270 266 262 258 254 251 248 244 242 240 238 235 234 234 233 233 234 233 234 233 236 234 230 227 232 232 231 232
308 306 304 304 304 305 305 306 302 302 307 302 302 301 301 299 296 292 286 279 274 269 265 261 257 254 250 247 243 241 239 237 235 234 233 232 233 232 232 231 232 227 231 227 232 238 240 234 231
307 308 304 302 309 310 313 305 298 304 306 306 305 304 304 304 302 296 289 283 276 269 265 260 257 252 250 246 242 239 237 235 234 233 232 231 231 231 232 231 232 231 230 229 235 236 237 229 232
306 308 316 309 308 312 315 307 313 309 308 308 309 308 307 307 304 300 295 289 283 276 267 260 255 251 247 244 240 238 235 233 232 231 231 230 230 231 233 233 233 233 234 235 238 236 238 239 242
300 312 312 313 307 307 305 307 311 311 308 309 309 309 308 308 306 303 299 294 289 281 273 264 256 250 246 242 239 236 233 231 230 230 230 231 230 231 232 234 235 234 236 238 238 236 238 239 242
308 312 310 308 308 303 303 301 305 307 310 309 310 310 309 309 306 305 300 297 293 285 278 268 258 251 244 240 237 233 230 228 228 229 229 230 230 231 232 234 236 237 238 240 238 238 237 238 236
308 308 307 307 312 308 304 306 308 310 309 309 310 311 310 309 307 305 304 300 295 289 283 274 262 250 243 237 234 229 226 225 224 226 227 228 228 229 231 234 237 237 238 238 238 237 235 233 232
307 308 310 311 304 311 308 309 312 312 310 311 314 313 314 311 310 308 306 302 298 292 288 281 264 249 240 233 230 226 224 224 224 223 225 225 226 229 230 234 237 238 238 237 237 237 236 233 232
308 309 314 308 311 303 311 311 320 325 321 317 314 318 316 315 313 311 310 306 302 295 294 287 265 247 239 233 228 224 222 221 221 222 223 224 226 229 229 232 235 236 238 238 236 236 236 235 234
315 321 317 312 314 309 321 316 318 325 322 318 316 322 319 318 317 315 313 311 307 301 297 289 265 250 240 234 225 222 220 219 219 219 222 225 228 231 231 234 236 238 238 238 238 237 236 231 235
312 321 316 314 307 313 314 316 322 327 323 321 320 322 320 321 319 318 317 314 311 307 300 288 270 256 246 231 223 219 218 218 219 221 223 226 230 233 234 236 236 237 238 240 237 235 236 235 236
317 320 320 316 314 311 315 322 322 330 332 328 324 321 320 320 322 321 321 320 317 313 304 289 276 266 249 228 220 216 215 215 216 218 221 225 229 232 234 234 232 234 236 237 237 236 235 237 237
326 324 325 319 315 319 320 317 321 335 335 331 327 321 320 322 327 328 329 328 325 320 315 302 284 267 246 223 214 210 208 209 212 215 217 221 225 229 229 228 227 229 232 233 236 237 235 239 238
332 331 334 318 320 316 309 318 331 337 337 334 331 327 324 329 333 334 334 334 333 328 321 314 297 267 233 210 202 200 202 204 208 210 213 217 222 225 223 222 222 223 228 230 232 232 235 234 237
333 329 333 321 323 316 317 325 337 339 339 342 345 337 334 336 338 341 341 345 344 342 339 334 321 254 198 188 188 190 194 199 203 207 210 215 218 218 217 218 218 220 224 227 229 233 235 233 235
324 331 329 333 327 323 328 330 332 342 346 349 349 345 342 342 346 351 353 353 356 357 4 14 37 104 139 162 173 181 187 192 196 200 207 211 212 212 212 214 216 220 223 227 227 229 228 227 231
327 326 329 329 326 327 330 339 349 350 352 351 353 351 349 350 357 2 6 6 9 16 26 42 62 89 113 135 152 162 170 177 186 194 199 202 204 206 208 210 212 216 219 221 218 226 223 222 222
325 326 323 326 332 322 330 332 355 353 355 357 358 358 358 2 7 10 11 15 19 30 42 57 71 89 109 124 136 146 156 165 171 178 183 187 192 198 201 205 208 211 212 213 215 214 213 218 222